Time,TemperatureF,DewpointF,PressureIn,WindDirection,WindDirectionDegrees,WindSpeedMPH,WindSpeedGustMPH,Humidity,HourlyPrecipIn,Conditions,Clouds,dailyrainin,SoftwareType,DateUTC
2013-10-09 00:00:00,57.1,48.2,30.01,ESE,113,0.0,0.0,72,0.00,,,0.00,Wunderground v.1.15,2013-10-09 05:00:00,
2013-10-09 00:05:00,56.9,48.0,30.01,ESE,113,0.0,0.0,72,0.00,,,0.00,Wunderground v.1.15,2013-10-09 05:05:00,
2013-10-09 00:10:00,56.6,48.0,30.02,SE,132,0.0,0.0,73,0.00,,,0.00,Wunderground v.1.15,2013-10-09 05:10:00,
2013-10-09 00:20:00,56.3,48.1,30.01,SSE,155,0.0,0.0,74,0.00,,,0.00,Wunderground v.1.15,2013-10-09 05:20:00,
2013-10-09 00:25:00,56.1,47.9,30.01,SSE,153,0.0,0.0,74,0.00,,,0.00,Wunderground v.1.15,2013-10-09 05:25:00,
2013-10-09 00:30:00,56.1,48.3,30.01,East,95,0.0,0.0,75,0.00,,,0.00,Wunderground v.1.15,2013-10-09 05:30:00,
2013-10-09 00:40:00,56.0,48.2,30.02,SE,124,0.0,0.0,75,0.00,,,0.00,Wunderground v.1.15,2013-10-09 05:40:00,
2013-10-09 00:45:00,55.9,48.1,30.02,ESE,117,0.0,0.0,75,0.00,,,0.00,Wunderground v.1.15,2013-10-09 05:45:00,
2013-10-09 00:50:00,55.7,47.9,30.02,ESE,117,0.0,0.0,75,0.00,,,0.00,Wunderground v.1.15,2013-10-09 05:50:00,
2013-10-09 00:55:00,55.6,48.2,30.02,ESE,111,0.0,0.0,76,0.00,,,0.00,Wunderground v.1.15,2013-10-09 05:55:00,
2013-10-09 01:00:00,55.5,48.1,30.02,ESE,111,0.0,0.0,76,0.00,,,0.00,Wunderground v.1.15,2013-10-09 06:00:00,
2013-10-09 01:10:00,55.3,48.2,30.02,ESE,110,0.0,0.0,77,0.00,,,0.00,Wunderground v.1.15,2013-10-09 06:10:00,
2013-10-09 01:15:00,55.2,48.1,30.02,SE,127,0.0,0.0,77,0.00,,,0.00,Wunderground v.1.15,2013-10-09 06:15:00,
2013-10-09 01:20:00,55.1,48.0,30.02,SE,128,0.0,0.0,77,0.00,,,0.00,Wunderground v.1.15,2013-10-09 06:20:00,
2013-10-09 01:25:00,55.0,47.9,30.02,SE,130,0.0,0.0,77,0.00,,,0.00,Wunderground v.1.15,2013-10-09 06:25:00,
2013-10-09 01:30:00,54.9,48.2,30.03,SE,133,0.0,0.0,78,0.00,,,0.00,Wunderground v.1.15,2013-10-09 06:30:00,
2013-10-09 01:35:00,54.9,48.2,30.03,ESE,105,0.0,0.0,78,0.00,,,0.00,Wunderground v.1.15,2013-10-09 06:35:00,
2013-10-09 01:40:00,54.8,48.1,30.03,ESE,105,0.0,0.0,78,0.00,,,0.00,Wunderground v.1.15,2013-10-09 06:40:00,
2013-10-09 01:45:00,54.7,48.3,30.03,ESE,107,0.0,0.0,79,0.00,,,0.00,Wunderground v.1.15,2013-10-09 06:45:00,
2013-10-09 01:50:00,54.7,48.3,30.03,SSE,148,0.0,0.0,79,0.00,,,0.00,Wunderground v.1.15,2013-10-09 06:50:00,
2013-10-09 01:55:00,54.6,48.2,30.03,ESE,111,0.0,0.0,79,0.00,,,0.00,Wunderground v.1.15,2013-10-09 06:55:00,
2013-10-09 02:00:00,54.6,48.2,30.03,ESE,117,0.0,0.0,79,0.00,,,0.00,Wunderground v.1.15,2013-10-09 07:00:00,
2013-10-09 02:10:00,54.5,48.1,30.04,ESE,111,0.0,0.0,79,0.00,,,0.00,Wunderground v.1.15,2013-10-09 07:10:00,
2013-10-09 02:15:00,54.4,48.0,30.04,ESE,105,0.0,0.0,79,0.00,,,0.00,Wunderground v.1.15,2013-10-09 07:15:00,
2013-10-09 02:20:00,54.3,47.9,30.04,SE,134,0.0,0.0,79,0.00,,,0.00,Wunderground v.1.15,2013-10-09 07:20:00,
2013-10-09 02:25:00,54.1,47.7,30.04,ESE,119,0.0,0.0,79,0.00,,,0.00,Wunderground v.1.15,2013-10-09 07:25:00,
2013-10-09 02:30:00,53.9,47.9,30.04,SSW,200,0.0,0.0,80,0.00,,,0.00,Wunderground v.1.15,2013-10-09 07:30:00,
2013-10-09 02:35:00,53.6,47.6,30.04,SE,144,0.0,0.0,80,0.00,,,0.00,Wunderground v.1.15,2013-10-09 07:35:00,
2013-10-09 02:45:00,53.2,47.5,30.04,SE,136,0.0,0.0,81,0.00,,,0.00,Wunderground v.1.15,2013-10-09 07:45:00,
2013-10-09 02:50:00,53.1,47.7,30.04,SE,134,0.0,0.0,82,0.00,,,0.00,Wunderground v.1.15,2013-10-09 07:50:00,
2013-10-09 02:55:00,53.0,47.7,30.04,SE,133,0.0,0.0,82,0.00,,,0.00,Wunderground v.1.15,2013-10-09 07:55:00,
2013-10-09 03:05:00,52.7,47.7,30.04,ESE,102,0.0,0.0,83,0.00,,,0.00,Wunderground v.1.15,2013-10-09 08:05:00,
2013-10-09 03:10:00,52.7,47.7,30.04,ESE,116,0.0,0.0,83,0.00,,,0.00,Wunderground v.1.15,2013-10-09 08:10:00,
2013-10-09 03:20:00,52.5,47.5,30.04,SE,129,0.0,0.0,83,0.00,,,0.00,Wunderground v.1.15,2013-10-09 08:20:00,
2013-10-09 03:25:00,52.4,47.7,30.04,SE,129,0.0,0.0,84,0.00,,,0.00,Wunderground v.1.15,2013-10-09 08:25:00,
2013-10-09 03:30:00,52.3,47.6,30.04,SE,129,0.0,0.0,84,0.00,,,0.00,Wunderground v.1.15,2013-10-09 08:30:00,
2013-10-09 03:35:00,52.2,47.5,30.05,SE,129,0.0,0.0,84,0.00,,,0.00,Wunderground v.1.15,2013-10-09 08:35:00,